Home   Weather   Faro   Past weeks

Flag for Portugal Past Weather in Faro, Portugal — Yesterday and Last 2 Weeks

Now
52 °F

Passing clouds.


Feels Like: 51 °F
Forecast: 52 / 66 °F
Wind: 5 mph from Northeast

Location: Faro / Aeroporto

Current Time: Feb 22, 2017 at 8:45:14 am

Latest Report: Feb 22, 2017 at 8:00 am


Visibility: N/A

Pressure: 30.01 "Hg

Humidity: 82%

Dew Point: 46 °F

Location of FaroLocation

Past Weather in Faro — Graph

°F

Faro Temperature Yesterday

Maximum temperature yesterday: 64 °F (at 1:00 pm)
Minimum temperature yesterday: 55 °F (at 11:00 pm)
Average temperature yesterday: 59 °F

High & Low Weather Summary for the Past Weeks

 TemperatureHumidityPressure
High68 °F (Feb 18, 2:00 pm)100% (Feb 12, 6:00 pm)30.39 "Hg (Feb 12, 6:00 pm)
Low45 °F (Feb 8, 8:30 am)27% (Feb 8, 12:30 pm)29.33 "Hg (Feb 12, 4:30 pm)
Average56 °F76%30.04 "Hg
* Reported Feb 7 7:00 am — Feb 22 7:30 am, Faro, Weather by CustomWeather, © 2017

Note: Actual official high and low records may vary slightly from our data, if they occured in-between our weather recording intervals... More about our weather records

Advertising

Faro Weather History for the Previous 24 Hours

Scroll right to see more
 ConditionsComfort  
Time TempWeatherWind HumidityBarometerVisibility
7:30 am
Wed, Feb 22
52 °FSunny.7 mph82%30.01 "Hg10 mi
7:00 am54 °FClear.8 mph77%30.01 "Hg10 mi
6:30 am54 °FClear.6 mph77%30.01 "Hg10 mi
6:00 am52 °FClear.7 mph82%30.01 "Hg10 mi
5:30 am54 °FClear.7 mph77%30.01 "Hg10 mi
5:00 am54 °FClear.9 mph77%30.01 "Hg10 mi
4:30 am54 °FClear.9 mph82%30.01 "Hg10 mi
4:00 am52 °FClear.7 mph88%30.01 "Hg10 mi
3:30 am52 °FClear.9 mph88%30.01 "Hg10 mi
3:00 am54 °FClear.7 mph88%30.01 "Hg10 mi
2:30 am54 °FClear.7 mph88%30.04 "Hg10 mi
2:00 am52 °FClear.8 mph94%30.04 "Hg10 mi
1:30 am54 °FClear.8 mph82%30.04 "Hg10 mi
1:00 am55 °FClear.8 mph82%30.04 "Hg10 mi
12:30 am55 °FClear.7 mph82%30.04 "Hg10 mi
12:00 am55 °FClear.8 mph82%30.07 "Hg10 mi
11:30 pm
Tue, Feb 21
55 °FClear.7 mph82%30.07 "Hg10 mi
11:00 pm55 °FClear.7 mph88%30.07 "Hg10 mi
10:30 pm57 °FClear.7 mph77%30.07 "Hg10 mi
10:00 pm57 °FClear.8 mph77%30.07 "Hg10 mi
9:30 pm57 °FClear.7 mph82%30.07 "Hg10 mi
9:00 pm59 °FClear.6 mph77%30.04 "Hg10 mi
8:30 pm57 °FPassing clouds.6 mph82%30.04 "HgN/A
8:00 pm59 °FPassing clouds.7 mph77%30.04 "HgN/A
7:30 pm59 °FPassing clouds.6 mph77%30.04 "HgN/A
7:00 pm61 °FPassing clouds.7 mph68%30.04 "HgN/A
6:30 pm59 °FPassing clouds.8 mph72%30.01 "HgN/A
6:00 pm61 °FPassing clouds.10 mph68%30.01 "HgN/A
5:30 pm61 °FSunny.9 mph68%30.01 "Hg10 mi
5:00 pm63 °FSunny.12 mph59%30.01 "Hg10 mi
4:30 pm63 °FSunny.13 mph64%30.01 "Hg10 mi
4:00 pm64 °FSunny.13 mph56%30.01 "Hg10 mi
3:30 pm64 °FSunny.10 mph56%30.01 "Hg10 mi
3:00 pm64 °FSunny.10 mph49%30.01 "Hg10 mi
2:30 pm64 °FSunny.9 mph52%30.01 "Hg10 mi
2:00 pm63 °FSunny.12 mph56%30.01 "Hg10 mi
1:30 pm63 °FSunny.15 mph52%30.04 "Hg10 mi
1:00 pm64 °FSunny.16 mph52%30.04 "Hg10 mi
12:30 pm63 °FSunny.12 mph52%30.04 "Hg10 mi
12:00 pm63 °FSunny.13 mph52%30.07 "Hg10 mi
11:30 am61 °FSunny.14 mph55%30.07 "Hg10 mi
11:00 am63 °FSunny.17 mph52%30.07 "Hg10 mi
10:30 am61 °FSunny.15 mph52%30.07 "Hg10 mi
10:00 am61 °FSunny.14 mph52%30.07 "Hg10 mi
9:30 am61 °FSunny.13 mph52%30.04 "Hg10 mi
9:00 am57 °FSunny.10 mph59%30.04 "Hg10 mi
8:30 am57 °FSunny.13 mph59%30.04 "Hg10 mi
8:00 am57 °FSunny.15 mph59%30.04 "Hg10 mi
Weather by CustomWeather, © 2017

See weather overviewHow to use our weather pages